{"data":{"norad_id":58758,"epoch":"2026-05-25T05:01:18.030144Z","epoch_age_seconds":60082,"freshness":"FRESH","line1":"1 58758U 24009A   26145.20923646  .00013456  00000+0  57957-3 0  9992","line2":"2 58758  49.9919 267.4626 0004929 200.5349 159.5408 15.22817684131344","mean_motion":15.22817684,"eccentricity":0.0004929,"inclination_deg":49.9919,"raan_deg":267.4626,"arg_perigee_deg":200.5349,"mean_anomaly_deg":159.5408,"bstar":0.00057957,"rev_number":13134,"period_min":94.561549628025,"perigee_km":493.95740778323,"apogee_km":500.73525925342,"semimajor_km":6875.4833335183,"source":"CELESTRAK","updated_at":"2026-05-25T13:38:00.963295Z"}}